GFSNIL_con_3kmhel_096.txt.gz
Helicity
195 152 179 254 264 270 229 194 198 200 194 214 293 220 187 186 209 295 201 94 101 126
143 208 203 251 257 198 173 164 193 177 158 252 266 202 160 198 239 248 101 91 90 166
220 198 215 228 175 155 171 167 182 131 173 210 239 199 175 170 225 150 123 105 95 169
194 181 194 140 139 141 169 166 156 164 163 178 185 275 199 244 268 156 151 153 162 176
170 136 143 147 114 146 127 128 132 150 168 226 260 184 186 322 199 285 177 188 198 177
125 119 133 117 106 129 114 117 76 109 115 169 213 507 405 376 311 249 183 213 209 188
114 109 109 86 95 101 84 80 77 40 7 29 77 121 196 216 310 187 128 132 108 89
100 74 55 79 83 71 50 30 31 31 5 37 62 50 71 98 100 105 79 18 37 37
123 113 114 109 102 57 18 28 24 42 49 128 226 167 71 56 36 33 47 41 52 31
318 318 312 268 274 269 208 219 255 265 265 244 188 197 151 103 109 107 151 118 123 158
323 320 311 303 303 307 292 242 221 240 226 199 197 180 143 205 209 234 243 226 233 213
336 317 325 371 343 334 357 359 303 251 235 201 222 276 259 206 244 253 249 261 272 219
372 349 333 314 328 337 349 354 361 375 342 329 266 294 260 230 257 296 283 294 300 378
579 455 433 419 413 420 430 412 399 392 393 392 381 361 359 362 361 350 370 355 332 339

GFSNIL_con_3kmhel_102.txt.gz
Helicity
290 293 243 206 164 162 153 177 188 169 198 217 220 229 216 238 254 269 265 220 222 254
238 229 171 138 129 182 189 186 156 176 181 179 210 221 225 199 202 206 205 198 250 279
195 207 203 198 155 176 184 183 153 152 131 167 192 188 160 156 190 190 236 247 232 311
251 236 221 193 163 142 164 166 157 169 175 162 167 170 160 174 155 179 194 251 219 278
284 247 238 175 125 121 108 122 130 139 141 129 122 119 122 125 307 254 302 302 257 297
211 204 159 114 87 86 83 111 116 115 117 102 102 68 64 115 255 262 256 173 216 239
120 97 92 82 92 86 104 99 108 111 101 74 84 72 112 151 126 144 177 208 220 216
82 66 68 83 89 118 111 108 127 116 102 106 99 101 89 129 122 142 169 149 203 303
292 142 110 120 154 166 183 165 165 136 130 116 55 46 122 161 299 229 254 271 266 279
325 264 237 203 251 239 229 226 210 178 159 121 89 77 48 110 121 297 349 321 354 290
332 350 313 306 346 301 270 300 254 215 195 168 154 167 117 162 140 140 155 219 237 177
478 368 383 442 455 325 342 352 306 271 241 202 163 188 208 218 176 208 216 182 206 239
311 600 544 498 506 451 421 398 359 320 321 315 229 251 284 288 268 275 257 273 325 281
282 358 328 636 622 492 451 437 422 408 384 395 337 271 274 293 314 339 375 371 339 284

GFSNIL_con_3kmhel_105.txt.gz
Helicity
281 269 267 253 264 268 262 202 238 237 210 223 233 232 257 281 313 307 246 268 210 263
266 256 251 235 194 201 205 214 146 125 168 175 177 210 256 278 275 247 225 218 205 245
215 209 211 226 228 200 181 137 160 168 150 145 149 178 216 210 217 225 237 243 238 232
191 190 202 196 208 186 166 142 131 154 134 123 125 165 184 180 175 192 177 196 307 260
172 194 199 201 182 157 139 109 120 121 126 141 148 143 152 146 159 179 170 189 162 186
157 195 200 171 149 137 93 87 88 95 99 112 124 124 94 90 85 142 161 135 238 310
218 139 138 107 85 53 11 35 65 82 94 115 128 101 81 76 65 70 116 131 298 243
444 163 95 80 54 63 52 87 92 121 142 157 145 112 59 28 71 114 141 265 269 298
359 356 336 219 118 110 136 176 192 224 208 172 135 112 51 29 76 92 87 167 171 175
296 323 314 289 228 213 175 182 214 237 198 175 125 126 78 98 82 101 163 227 265 305
287 230 324 300 321 300 259 262 229 214 197 180 128 143 153 169 149 151 145 241 393 385
188 177 192 380 364 363 388 354 321 260 239 187 136 156 142 150 196 202 199 162 191 315
214 220 151 229 283 477 391 457 372 376 309 288 168 167 151 172 189 232 245 249 243 250
225 156 216 214 261 111 387 442 472 472 413 370 285 249 265 243 240 208 251 257 281 255

GFSNIL_con_3kmhel_111.txt.gz
Helicity
84 102 96 59 110 165 181 211 250 249 235 218 223 228 249 222 249 215 183 191 230 265
97 102 98 83 122 148 141 208 207 199 208 191 224 241 232 245 235 206 178 182 216 249
98 123 123 129 106 120 146 177 195 190 170 238 229 215 234 228 184 168 163 190 205 220
105 120 118 121 103 134 196 204 199 164 162 195 202 211 265 189 170 131 141 161 161 179
311 126 146 183 198 227 233 192 195 187 188 175 168 208 202 145 126 114 94 100 142 160
422 396 145 180 227 246 223 216 193 172 146 143 168 181 164 121 105 104 114 120 128 101
502 540 558 409 338 299 253 214 204 218 230 206 217 225 178 127 114 100 87 74 57 76
321 442 502 545 512 484 483 482 501 436 422 327 231 183 164 130 102 91 82 84 60 60
491 432 587 569 567 492 465 383 341 435 412 322 196 270 243 176 105 100 96 88 80 72
484 304 553 670 476 453 433 460 510 318 273 257 271 298 221 224 157 131 133 110 83 84
369 357 343 336 608 542 369 366 333 302 219 170 175 278 241 169 178 185 182 160 114 63
301 292 311 270 166 237 208 259 272 217 172 137 190 289 380 303 235 224 238 217 206 150
128 185 225 205 199 131 76 103 137 181 258 255 192 196 300 312 275 298 267 214 230 304
84 92 100 102 121 132 147 117 127 142 131 169 254 291 238 500 258 169 292 248 249 218

GFSNIL_con_3kmhel_114.txt.gz
Helicity
53 92 83 76 92 108 191 198 205 275 287 268 250 249 225 248 227 199 204 178 206 137
51 94 83 63 87 132 146 164 161 203 225 265 246 235 218 254 226 203 206 168 176 160
73 115 67 79 117 119 96 79 84 103 150 202 209 242 233 245 219 206 215 220 197 172
186 117 46 90 125 82 94 85 103 101 164 207 216 206 210 224 211 201 189 218 197 127
352 363 121 97 116 95 99 148 142 152 199 239 208 195 204 210 209 195 232 205 163 121
538 436 412 263 176 170 166 193 205 222 218 250 253 220 256 222 202 219 237 150 115 75
425 465 469 485 500 498 461 367 423 453 432 470 471 469 445 360 295 265 193 130 94 87
413 451 535 612 578 569 600 588 569 587 609 570 567 501 397 297 232 187 114 82 110 128
503 440 596 702 736 751 681 679 645 606 526 482 384 448 412 298 284 186 194 189 198 187
505 444 553 523 849 891 796 694 644 562 389 317 333 391 350 353 275 216 208 187 162 145
295 347 223 469 431 630 505 637 601 473 432 380 402 380 227 291 230 210 190 168 166 153
200 192 192 255 285 320 385 462 496 410 428 307 315 311 235 155 192 169 182 186 228 216
127 135 171 175 117 122 141 189 196 175 201 275 252 362 308 224 171 165 197 219 167 274
53 65 61 35 58 60 87 99 94 110 142 153 186 208 236 223 157 141 191 198 238 203

GFSNIL_con_3kmhel_117.txt.gz
Helicity
146 107 120 134 149 298 141 165 168 190 249 279 265 293 295 278 263 250 278 264 216 165
161 169 135 114 130 90 132 152 126 133 164 234 287 262 304 329 258 252 256 227 200 165
100 121 114 136 75 82 99 92 122 86 164 210 254 284 273 263 253 251 228 223 192 156
60 67 72 91 46 74 76 110 107 102 158 181 193 221 222 239 281 251 229 227 176 159
120 175 149 184 54 52 72 89 85 79 81 98 171 199 196 236 247 258 210 183 195 196
273 364 387 380 387 363 196 154 218 198 265 249 241 218 241 212 256 229 208 221 191 187
396 382 404 469 571 474 513 520 433 454 534 543 518 535 543 330 311 305 335 285 255 250
479 410 369 501 584 631 639 630 647 596 575 594 622 632 563 512 428 459 424 450 497 422
475 459 425 435 553 673 749 763 730 727 572 515 481 557 609 547 475 430 408 427 406 342
325 376 454 504 596 689 673 736 820 825 861 837 732 583 487 434 401 449 467 445 352 295
245 242 301 329 483 516 655 558 684 666 633 644 619 546 476 346 232 214 340 414 435 328
115 150 181 193 224 191 175 268 262 247 342 416 375 550 430 402 490 435 460 365 292 239
38 39 42 69 113 127 109 129 133 157 204 268 322 432 378 377 306 242 179 163 175 229
21 17 14 28 46 32 29 24 51 78 101 134 146 138 158 195 121 86 114 131 146 132

GFSNIL_con_3kmhel_123.txt.gz
Helicity
80 67 55 43 28 48 71 67 63 85 172 161 177 122 129 136 241 395 219 211 102 180
97 99 71 72 52 42 31 30 30 41 141 184 181 94 101 133 145 253 290 232 204 213
131 127 98 98 88 43 35 27 44 46 39 135 184 128 100 111 131 154 253 273 271 253
89 84 74 85 86 80 52 48 93 75 70 78 157 160 152 139 138 143 218 262 233 203
116 131 96 99 140 187 237 231 151 141 140 146 133 166 162 183 206 119 105 174 248 230
235 233 236 211 234 246 307 359 340 371 376 394 361 274 276 159 147 129 139 172 237 270
278 366 356 313 303 323 390 437 459 465 404 442 460 399 242 203 103 110 158 288 390 444
203 296 495 340 359 440 469 480 417 479 596 495 379 375 430 508 590 589 619 704 667 746
150 211 290 446 273 283 426 524 585 344 333 613 580 462 431 704 811 955 986 689 612 723
63 72 82 124 263 362 255 482 541 555 707 490 628 702 645 512 443 722 777 670 648 691
52 -1 -15 -15 22 29 20 30 131 147 158 298 483 473 577 444 463 274 489 526 548 592
72 74 66 43 14 -19 -22 -23 -27 0 90 123 178 190 171 139 205 235 179 170 261 386
15 33 28 17 26 29 15 -10 5 39 72 100 92 132 98 34 -6 40 93 81 83 152
27 31 0 2 11 -2 9 40 57 56 83 118 139 123 140 122 47 8 -9 18 29 12

GFSNIL_con_3kmhel_126.txt.gz
Helicity
77 68 43 6 1 -1 -14 10 75 109 126 159 190 124 107 114 135 109 120 125 429 446
92 93 78 92 69 55 46 33 63 103 124 122 161 197 147 107 99 94 183 196 190 223
96 88 102 89 101 85 57 56 84 87 97 107 97 104 174 171 105 97 164 198 166 186
75 89 71 30 65 76 80 100 113 79 100 91 85 90 124 178 211 146 142 195 220 241
122 108 75 86 87 85 71 94 128 175 254 229 147 120 127 158 244 209 173 231 163 165
197 146 157 174 197 209 202 196 234 262 269 262 235 215 215 238 186 211 195 166 160 173
219 211 196 253 258 268 320 343 318 297 307 308 305 313 279 273 322 366 359 395 388 423
69 106 160 280 367 396 359 388 492 525 484 405 321 295 261 193 295 384 429 494 478 573
86 94 61 90 147 229 224 340 514 618 671 608 479 459 426 336 322 379 539 557 615 613
53 30 -8 -24 -24 14 77 97 101 239 445 583 542 444 381 345 394 457 389 438 572 472
66 55 68 59 57 58 35 26 46 66 82 125 180 197 291 313 346 385 435 450 472 511
68 59 69 77 55 44 46 66 73 82 110 95 90 86 59 59 69 151 260 294 302 292
10 12 16 -3 1 -4 -5 9 39 75 102 124 123 119 99 59 22 37 12 52 85 145
-1 5 -1 12 18 8 16 28 26 40 78 95 98 95 114 99 52 35 17 38 64 78

GFSNIL_con_3kmhel_132.txt.gz
Helicity
92 95 94 120 120 93 86 46 31 34 68 124 149 146 172 183 167 152 179 305 248 158
91 134 119 107 89 68 72 56 48 48 69 103 121 141 152 173 181 220 168 169 203 187
122 94 65 53 51 67 63 57 61 77 106 133 149 121 140 149 155 171 156 135 181 198
104 60 51 47 49 86 92 92 91 96 124 163 219 229 176 140 118 143 160 166 156 157
37 59 91 89 114 136 150 114 114 126 153 187 206 207 238 198 165 134 165 207 198 168
36 53 88 131 168 177 194 191 154 151 183 189 221 232 239 259 279 276 239 234 263 341
9 27 87 99 107 114 109 153 182 209 209 225 230 245 257 293 336 386 471 457 390 333
-3 0 14 11 30 75 83 21 -23 69 202 284 274 217 212 283 370 398 441 492 579 534
31 58 57 61 52 54 53 38 43 27 -23 63 123 183 252 212 281 379 366 413 433 461
59 64 80 77 77 62 43 32 67 80 90 53 -18 -21 -14 52 162 237 324 369 382 357
60 73 97 111 101 59 16 6 16 48 61 83 104 93 59 41 7 17 111 177 274 316
16 27 34 50 54 10 2 7 2 11 44 61 89 112 94 43 54 51 54 33 44 36
-6 0 9 -2 -10 -10 1 1 13 32 45 73 75 114 115 78 48 73 63 65 89 140
-8 -3 -12 -16 -3 -5 -2 13 26 29 42 58 63 68 99 100 36 20 7 39 72 79

GFSNIL_con_3kmhel_138.txt.gz
Helicity
48 32 30 59 63 62 62 79 82 101 118 132 149 148 145 151 160 164 151 151 112 114
34 45 40 36 29 29 25 18 27 21 34 55 82 95 99 94 93 125 127 120 118 93
7 27 25 22 34 48 55 46 50 44 49 47 68 114 152 67 68 69 78 91 98 122
-45 -56 -50 -36 -17 10 48 77 91 68 80 90 109 151 153 189 174 196 229 259 242 241
-44 -42 -52 -59 -80 -64 10 76 118 97 92 127 157 152 181 185 217 238 223 189 203 218
-32 -38 -32 -30 -34 -39 -38 -2 79 139 133 140 163 167 160 152 168 205 240 239 225 228
-4 -8 -0 -1 3 -11 -22 -17 -39 -20 40 132 182 185 153 173 190 182 190 203 236 243
-1 18 26 17 18 8 10 18 26 2 -32 -16 18 62 122 141 182 225 219 218 223 211
14 28 29 42 44 47 42 50 52 45 32 27 24 31 16 -9 35 127 176 180 200 182
4 4 8 8 6 12 11 23 39 84 86 77 57 38 25 36 24 33 41 57 93 124
3 -6 -7 -13 -12 -16 -18 -9 -1 20 39 44 77 57 33 4 -4 8 54 93 83 68
4 -8 -17 -15 -25 -42 -44 -27 -11 -4 20 41 53 72 26 -1 8 18 34 36 75 79
13 -3 -9 -20 -24 -35 -35 -30 -27 1 19 31 50 97 89 30 19 39 36 43 69 132
13 4 -2 -15 -28 -35 -36 -42 -34 -12 4 32 50 62 91 84 34 22 19 34 58 82

GFSNIL_con_3kmhel_141.txt.gz
Helicity
7 16 32 51 53 44 39 41 43 36 32 42 54 69 87 111 132 140 159 154 154 170
9 -18 -5 31 48 51 55 40 31 20 23 27 37 39 43 54 59 92 127 132 126 115
1 -16 -48 -47 -10 23 27 30 25 23 23 43 50 76 61 80 75 62 91 120 122 118
14 -6 -34 -50 -55 -50 -13 37 43 27 40 43 56 86 83 120 230 205 170 164 157 184
13 1 -13 -35 -42 -52 -66 -58 -17 30 64 86 94 74 122 118 149 189 175 147 156 174
19 13 2 -17 -32 -30 -42 -55 -73 -32 38 120 139 100 91 95 110 139 167 204 217 234
5 -10 -12 -2 -8 -18 -20 -3 -24 -46 -52 -27 28 67 67 90 90 101 120 139 192 204
-6 -1 9 18 19 22 7 19 16 9 13 5 -1 -27 -16 -5 36 89 118 106 126 173
-3 -1 -8 -6 -5 2 6 8 36 19 11 19 32 21 36 21 5 -2 12 58 82 112
11 8 -2 -12 -13 -16 -11 -9 -4 11 -6 2 15 14 9 24 24 49 83 85 73 52
15 18 3 -11 -17 -18 -16 -9 -2 7 14 9 31 44 25 10 3 22 64 94 83 75
22 19 15 2 -5 -12 -14 -13 -9 3 10 26 47 72 40 -14 -14 9 31 46 106 100
48 34 27 20 9 -2 -12 -10 -16 -4 12 39 33 98 99 35 -3 8 2 23 39 102
64 53 43 28 11 9 6 4 -0 -8 -10 11 43 51 85 87 36 23 21 30 36 40